Eastman, GA

2:46 PM EDT on September 26, 2017 (GMT -0400)
Heart Of Georgia Regional

Weather History for KEZM - April, 2014

Change the Weather History Date:

Monday, April 21, 2014

  Actual Average Record
Temperature  
Mean Temperature 64 °F -  
Max Temperature 81 °F 79 °F 89 °F (2017)
Min Temperature 48 °F 53 °F 41 °F (2013)
Growing Degree Days 14 (Base 50)    
Moisture  
Dew Point 53 °F    
Average Humidity 73    
Maximum Humidity 100    
Minimum Humidity 32    
Precipitation  
Precipitation 0.00 in - - ()
Sea Level Pressure  
Sea Level Pressure 30.11 in    
Wind  
Wind Speed 2 mph (NNE)    
Max Wind Speed 9 mph    
Max Gust Speed -    
Visibility 8 miles    
Events Fog    
Averages and records for this station are not official NWS values.
T = Trace of Precipitation, MM = Missing Value Source: NWS Daily Summary

Daily Weather History Graph

Daily Weather History Graph

Search for Another Location

Airport or City:

Trip Planner

Search our weather history database for the weather conditions in past years. The results will help you decide how hot, cold, wet, or windy it might be!

Date:

Astronomy

Apr. 21, 2014 Rise Set
Actual Time 6:56 AM EDT 8:06 PM EDT
Civil Twilight 6:31 AM EDT 8:31 PM EDT
Nautical Twilight 6:00 AM EDT 9:02 PM EDT
Astronomical Twilight 5:29 AM EDT 9:33 PM EDT
Moon 1:30 AM EDT (4/21) 12:26 PM EDT (4/21)
Length of Visible Light 14h 00m
Length of Day
13h 09m
Waning Gibbous, 58% of the Moon is Illuminated
Apr 21
Waning Gibbous
Apr 22
Last Quarter
Apr 29
New
May 6
First Quarter
May 14
Full

Hourly Weather History & Observations

Time (EDT) Temp. Dew Point Humidity Pressure Visibility Wind Dir Wind Speed Gust Speed Precip Events Conditions
12:15 AM 53.4 °F 53.4 °F 100% 30.18 in 1.2 mi Calm Calm - N/A   Mist
12:35 AM 53.2 °F 53.2 °F 100% 30.18 in 0.5 mi Calm Calm - N/A Fog Fog
12:55 AM 53.2 °F 53.2 °F 100% 30.18 in 0.8 mi Calm Calm - N/A   Mist
1:15 AM 53.1 °F 53.1 °F 100% 30.17 in 4.0 mi Calm Calm - N/A   Clear
1:35 AM 52.7 °F 52.7 °F 100% 30.17 in 4.0 mi Calm Calm - N/A   Clear
1:55 AM 51.8 °F 51.8 °F 100% 30.17 in 0.5 mi Calm Calm - N/A Fog Fog
2:15 AM 52.0 °F 52.0 °F 100% 30.16 in 0.5 mi Calm Calm - N/A Fog Fog
2:35 AM 50.7 °F 50.7 °F 100% 30.16 in 0.5 mi Calm Calm - N/A Fog Fog
2:55 AM 51.6 °F 51.6 °F 100% 30.15 in 0.8 mi Calm Calm - N/A   Mist
3:15 AM 51.1 °F 51.1 °F 100% 30.15 in 0.8 mi Calm Calm - N/A   Mist
3:35 AM 50.7 °F 50.7 °F 100% 30.15 in 0.5 mi Calm Calm - N/A Fog Fog
3:55 AM 51.1 °F 51.1 °F 100% 30.15 in 5.0 mi Calm Calm - N/A   Clear
4:15 AM 50.9 °F 50.9 °F 100% 30.15 in 4.0 mi Calm Calm - N/A   Clear
4:35 AM 50.9 °F 50.9 °F 100% 30.15 in 5.0 mi Calm Calm - N/A   Clear
4:55 AM 49.8 °F 49.8 °F 100% 30.15 in 0.8 mi Calm Calm - N/A   Mist
5:15 AM 49.3 °F 49.3 °F 100% 30.15 in 1.2 mi Calm Calm - N/A   Mist
5:35 AM 49.6 °F 49.6 °F 100% 30.15 in 5.0 mi Calm Calm - N/A   Clear
5:55 AM 49.5 °F 49.5 °F 100% 30.15 in 1.8 mi Calm Calm - N/A   Mist
6:15 AM 49.3 °F 49.3 °F 100% 30.15 in 2.5 mi Calm Calm - N/A   Clear
6:35 AM 49.1 °F 49.1 °F 100% 30.16 in 7.0 mi NNW 3.5 mph - N/A   Clear
6:55 AM 49.3 °F 49.3 °F 100% 30.16 in 2.5 mi Calm Calm - N/A   Clear
7:15 AM 48.6 °F 48.6 °F 100% 30.18 in 1.2 mi Calm Calm - N/A   Mist
7:35 AM 49.6 °F 49.6 °F 100% 30.18 in 7.0 mi Calm Calm - N/A   Clear
7:55 AM 51.3 °F 51.3 °F 100% 30.18 in 10.0 mi Calm Calm - N/A   Clear
8:15 AM 53.8 °F 52.9 °F 97% 30.18 in 10.0 mi Calm Calm - N/A   Clear
8:35 AM 55.9 °F 53.6 °F 92% 30.18 in 10.0 mi Calm Calm - N/A   Clear
8:55 AM 59.9 °F 53.4 °F 79% 30.18 in 10.0 mi NNE 5.8 mph - N/A   Clear
9:15 AM 63.1 °F 53.1 °F 70% 30.18 in 10.0 mi NE 3.5 mph - N/A   Clear
9:35 AM 64.9 °F 52.0 °F 63% 30.18 in 10.0 mi NE 8.1 mph - N/A   Clear
9:55 AM 66.9 °F 52.3 °F 59% 30.18 in 10.0 mi NE 8.1 mph - N/A   Clear
10:15 AM 68.5 °F 53.1 °F 58% 30.18 in 10.0 mi NE 6.9 mph - N/A   Clear
10:35 AM 69.4 °F 53.8 °F 57% 30.18 in 10.0 mi ENE 9.2 mph - N/A   Clear
10:55 AM 70.2 °F 54.7 °F 58% 30.18 in 10.0 mi ENE 6.9 mph - N/A   Clear
11:15 AM 71.8 °F 55.8 °F 57% 30.18 in 10.0 mi NE 8.1 mph - N/A   Clear
11:35 AM 72.0 °F 56.5 °F 58% 30.18 in 10.0 mi ENE 6.9 mph - N/A   Clear
11:55 AM 73.2 °F 56.8 °F 56% 30.17 in 10.0 mi NE 5.8 mph - N/A   Clear
12:15 PM 72.7 °F 55.0 °F 54% 30.16 in 10.0 mi NE 4.6 mph - N/A   Clear
12:35 PM 73.8 °F 53.6 °F 49% 30.15 in 10.0 mi NNE 8.1 mph - N/A   Clear
12:55 PM 75.2 °F 53.2 °F 46% 30.14 in 10.0 mi NNE 8.1 mph - N/A   Clear
1:15 PM 75.9 °F 53.8 °F 46% 30.13 in 10.0 mi North 4.6 mph - N/A   Clear
1:35 PM 76.1 °F 49.1 °F 39% 30.12 in 10.0 mi NE 8.1 mph - N/A   Clear
1:55 PM 77.9 °F 49.1 °F 36% 30.11 in 10.0 mi NE 5.8 mph - N/A   Clear
2:15 PM 78.1 °F 50.4 °F 38% 30.10 in 10.0 mi East 4.6 mph - N/A   Clear
2:35 PM 78.8 °F 49.6 °F 36% 30.09 in 10.0 mi North 6.9 mph - N/A   Clear
2:55 PM 78.6 °F 48.9 °F 35% 30.08 in 10.0 mi NW 4.6 mph - N/A   Clear
3:15 PM 79.5 °F 50.2 °F 36% 30.07 in 10.0 mi NNW 3.5 mph - N/A   Clear
3:35 PM 79.9 °F 50.5 °F 36% 30.06 in 10.0 mi NNE 3.5 mph - N/A   Clear
3:55 PM 80.1 °F 50.4 °F 35% 30.05 in 10.0 mi NNE 6.9 mph - N/A   Clear
4:15 PM 81.3 °F 50.5 °F 34% 30.04 in 10.0 mi ENE 5.8 mph - N/A   Clear
4:35 PM 81.0 °F 49.3 °F 33% 30.04 in 10.0 mi NNE 3.5 mph - N/A   Clear
4:55 PM 81.0 °F 49.3 °F 33% 30.03 in 10.0 mi NE 4.6 mph - N/A   Clear
5:15 PM 80.8 °F 49.8 °F 34% 30.03 in 10.0 mi NW 5.8 mph - N/A   Clear
5:35 PM 81.0 °F 49.1 °F 33% 30.03 in 10.0 mi North 5.8 mph - N/A   Clear
5:55 PM 81.0 °F 48.6 °F 32% 30.02 in 10.0 mi NNW 3.5 mph - N/A   Clear
6:15 PM 80.6 °F 48.0 °F 32% 30.03 in 10.0 mi Calm Calm - N/A   Clear
6:55 PM 79.9 °F 48.6 °F 33% 30.02 in 10.0 mi Calm Calm - N/A   Clear
7:15 PM 79.0 °F 49.8 °F 36% 30.02 in 10.0 mi Calm Calm - N/A   Clear
7:35 PM 75.6 °F 50.9 °F 42% 30.01 in 10.0 mi Calm Calm - N/A   Clear
7:55 PM 72.1 °F 57.6 °F 60% 30.01 in 10.0 mi Calm Calm - N/A   Clear
8:15 PM 68.7 °F 56.3 °F 64% 30.01 in 10.0 mi Calm Calm - N/A   Clear
8:35 PM 65.7 °F 57.6 °F 75% 30.01 in 10.0 mi Calm Calm - N/A   Clear
8:55 PM 63.9 °F 59.0 °F 84% 30.02 in 10.0 mi Calm Calm - N/A   Clear
9:15 PM 62.6 °F 59.0 °F 88% 30.02 in 10.0 mi Calm Calm - N/A   Clear
9:35 PM 61.9 °F 59.5 °F 92% 30.02 in 10.0 mi Calm Calm - N/A   Clear
9:55 PM 59.9 °F 58.8 °F 96% 30.02 in 10.0 mi Calm Calm - N/A   Clear
10:15 PM 59.5 °F 58.3 °F 96% 30.02 in 10.0 mi Calm Calm - N/A   Clear
10:35 PM 59.0 °F 59.0 °F 100% 30.02 in 10.0 mi Calm Calm - N/A   Clear
10:55 PM 58.6 °F 58.6 °F 100% 30.02 in 10.0 mi Calm Calm - N/A   Clear
11:15 PM 58.1 °F 58.1 °F 100% 30.02 in 10.0 mi Calm Calm - N/A   Clear
11:35 PM 58.1 °F 58.1 °F 100% 30.01 in 7.0 mi Calm Calm - N/A   Clear
11:55 PM 57.6 °F 57.6 °F 100% 30.01 in 7.0 mi Calm Calm - N/A   Clear